SL-3 R/B

Satellite information

Favourite Embed

Satellite Type and Status

ROCKET BODYIN ORBIT

Key statistics

Satellite SL-3 R/B at a glance.

Uptime

18349

Days in orbit

Revolutions

≈ 14.1

Per day

Orbit

LEO

Low Earth Orbit

Inclination

81.2

Latest

Satellite identification and parameters

Extended collection of information and parameters for SL-3 R/B.

Object identification

Identified? True

Debris? False

Object name: SL-3 R/B

International designator: 1975-087B

Object number (NORAD): 8294

Object ID (CCSDS): 8294

Country: COMMONWEALTH OF INDEPENDENT STATES (CIS)

Current information (Y/N): Y

RCS size: LARGE

Orbital parameters

Period: 102.195 minutes

Inclination: 81.2096 deg

SMA: 7240.702 km

Apoapsis: 935.537 km

Periapsis: 789.597 km

RAAN: 240.3331 deg

Eccentricy: 0.0100778

Argument of periapsis: 293.7529 deg

Mean anomaly: 65.3096 deg

Mean motion: 14.09067312 rev/day

Mean motion (dot): 0.00000061 rev/day2

B* drag term: 0.00002733515 1/REarth

Two-line elements (TLE)

Creation date: Dec. 12, 2025, 10:14 a.m.

Reference frame: TEME

Reference center: EARTH

Epoch: Dec. 12, 2025, 5:08 a.m. UTC

TLE line 0: 0 SL-3 R/B

TLE line 1: 1 08294U 75087B 25346.21422689 .00000061 00000-0 27335-4 0 9995

TLE line 2: 2 08294 81.2096 240.3331 0100778 293.7529 65.3096 14.09067312581069

Live tracking on map

Real-time ground track for satellite SL-3 R/B.

In-orbit conjunctions

A list of the most updated potential collisions computed for object SL-3 R/B.

Target Orbit TCA Probability of collision Miss distance Type
CZ-6A DEB LEO 2025-07-07 22:41:14 0.005572124 15.0 (m) DEBRIS
CZ-6A DEB SSO 2025-01-14 21:27:52 0.0001985912 96.0 (m) DEBRIS
NOAA 16 DEB SSO 2025-01-05 10:53:53 0.000147631 120.0 (m) DEBRIS
DELTA 1 DEB SSO 2024-07-20 11:16:03 0.0002191471 552.0 (m) DEBRIS

Associated space launch

The Meteor-1 series was the first series of Soviet meteorological satellites.

SL-3 R/B was lifted into orbit during the mission ‘Vostok 8A92M | Meteor-1 22 (28L)’, on board a Vostok 8A92M space rocket.

The launch took place on Sept. 18, 1975, 12:12 a.m. from 41/1.

For more information about the launch, click the button.

Launch to space Vostok 8A92M | Meteor-1 22 (28L)
Vostok 8A92M | Meteor-1 22 (28L)

Agency: N/A

Status: Launch Successful

Launch date: Sept. 18, 1975, 12:12 a.m. UTC

Rocket: Vostok 8A92M

Launch pad: 41/1

Location: Plesetsk Cosmodrome, Russian Federation

...

Latest news about this satellite

There are no fresh news available about this satellite. Check back as we update our databases every day.


Newsletter sign-up

Weekly statistics, charts and insights to help you stay on top of the space industry.